TimePST,TemperatureF,Dew PointF,Humidity,Sea Level PressureIn,VisibilityMPH,Wind Direction,Wind SpeedMPH,Gust SpeedMPH,PrecipitationIn,Events,Conditions,WindDirDegrees,DateUTC
12:53 AM,46.0,30.9,56,30.15,10.0,NW,8.1,-,N/A,,Clear,320,2013-01-28 08:53:00
1:53 AM,45.0,30.9,58,30.16,10.0,NW,9.2,-,N/A,,Clear,320,2013-01-28 09:53:00
2:53 AM,45.0,30.9,58,30.16,10.0,NW,6.9,-,N/A,,Clear,310,2013-01-28 10:53:00
3:53 AM,44.1,30.0,58,30.16,10.0,NW,3.5,-,N/A,,Mostly Cloudy,310,2013-01-28 11:53:00
4:53 AM,39.9,30.9,70,30.16,10.0,Calm,Calm,-,N/A,,Mostly Cloudy,0,2013-01-28 12:53:00
5:53 AM,36.0,30.9,82,30.15,10.0,Calm,Calm,-,N/A,,Clear,0,2013-01-28 13:53:00
6:53 AM,33.1,30.0,89,30.17,10.0,Calm,Calm,-,N/A,,Clear,0,2013-01-28 14:53:00
7:53 AM,37.0,32.0,82,30.20,10.0,Calm,Calm,-,N/A,,Clear,0,2013-01-28 15:53:00
8:53 AM,46.9,34.0,61,30.21,10.0,Calm,Calm,-,N/A,,Clear,0,2013-01-28 16:53:00
9:53 AM,53.1,30.9,43,30.22,10.0,NNW,5.8,-,N/A,,Clear,340,2013-01-28 17:53:00
10:53 AM,55.0,33.1,43,30.24,10.0,NNW,5.8,-,N/A,,Clear,340,2013-01-28 18:53:00
11:53 AM,57.0,33.1,40,30.24,10.0,Variable,5.8,-,N/A,,Clear,0,2013-01-28 19:53:00
12:53 PM,59.0,34.0,39,30.23,10.0,Calm,Calm,-,N/A,,Clear,0,2013-01-28 20:53:00
1:53 PM,59.0,33.1,38,30.22,10.0,Variable,3.5,-,N/A,,Clear,0,2013-01-28 21:53:00
2:53 PM,60.1,32.0,35,30.20,10.0,NNW,5.8,-,N/A,,Clear,340,2013-01-28 22:53:00
3:53 PM,60.1,32.0,35,30.21,10.0,North,3.5,-,N/A,,Clear,350,2013-01-28 23:53:00
4:53 PM,55.9,32.0,40,30.22,10.0,Calm,Calm,-,N/A,,Clear,0,2013-01-29 00:53:00
5:53 PM,46.9,34.0,61,30.24,10.0,Calm,Calm,-,N/A,,Clear,0,2013-01-29 01:53:00
6:53 PM,46.9,37.0,68,30.25,10.0,NW,4.6,-,N/A,,Clear,310,2013-01-29 02:53:00
7:53 PM,46.0,36.0,68,30.26,10.0,Calm,Calm,-,N/A,,Clear,0,2013-01-29 03:53:00
8:53 PM,48.0,36.0,63,30.26,10.0,WNW,3.5,-,N/A,,Clear,290,2013-01-29 04:53:00
9:53 PM,44.1,36.0,73,30.26,10.0,Calm,Calm,-,N/A,,Clear,0,2013-01-29 05:53:00
10:53 PM,39.0,35.1,86,30.27,10.0,Calm,Calm,-,N/A,,Clear,0,2013-01-29 06:53:00
11:53 PM,39.0,35.1,86,30.27,10.0,Calm,Calm,-,N/A,,Clear,0,2013-01-29 07:53:00